Year,Month,Day,Hour,Minute,Value (Times are PST for windgust in km/hr)
2020,08,05,00,28,3.20
2020,08,05,00,29,3.20
2020,08,05,00,30,3.20
2020,08,05,00,31,3.20
2020,08,05,00,32,3.20
2020,08,05,00,33,3.20
2020,08,05,00,34,4.80
2020,08,05,00,35,4.80
2020,08,05,00,36,6.40
2020,08,05,00,37,4.80
2020,08,05,00,38,4.80
2020,08,05,00,39,1.60
2020,08,05,00,40,3.20
2020,08,05,00,41,3.20
2020,08,05,00,42,1.60
2020,08,05,00,44,1.60
2020,08,05,00,56,3.20
2020,08,05,00,57,3.20
2020,08,05,00,58,3.20
2020,08,05,00,59,3.20
2020,08,05,01,00,1.60
2020,08,05,01,01,1.60
2020,08,05,01,02,3.20
2020,08,05,01,03,3.20
2020,08,05,01,04,3.20
2020,08,05,01,05,3.20
2020,08,05,01,06,3.20
2020,08,05,01,07,1.60
2020,08,05,01,08,1.60
2020,08,05,01,09,1.60
2020,08,05,01,12,1.60
2020,08,05,01,13,1.60
2020,08,05,01,14,3.20
2020,08,05,01,15,1.60
2020,08,05,01,16,1.60
2020,08,05,01,17,1.60
2020,08,05,01,18,1.60
2020,08,05,01,19,1.60
2020,08,05,01,20,3.20
2020,08,05,01,21,1.60
2020,08,05,01,22,3.20
2020,08,05,01,23,3.20
2020,08,05,01,24,3.20
2020,08,05,01,25,4.80
2020,08,05,01,26,4.80
2020,08,05,01,27,3.20
2020,08,05,01,28,3.20
2020,08,05,01,29,3.20
2020,08,05,01,30,3.20
2020,08,05,01,31,3.20
2020,08,05,01,32,3.20
2020,08,05,01,33,3.20
2020,08,05,01,34,3.20
2020,08,05,01,35,3.20
2020,08,05,01,36,1.60
2020,08,05,01,37,3.20
2020,08,05,01,38,1.60
2020,08,05,01,39,1.60
2020,08,05,01,40,1.60
2020,08,05,01,41,1.60
2020,08,05,01,42,1.60
2020,08,05,01,43,1.60
2020,08,05,01,50,1.60
2020,08,05,01,51,1.60
2020,08,05,01,55,1.60
2020,08,05,01,56,3.20
2020,08,05,01,57,3.20
2020,08,05,01,58,3.20
2020,08,05,01,59,3.20
2020,08,05,02,00,3.20
2020,08,05,02,01,3.20
2020,08,05,02,02,3.20
2020,08,05,02,03,1.60
2020,08,05,02,04,1.60
2020,08,05,02,06,1.60
2020,08,05,02,08,3.20
2020,08,05,02,09,3.20
2020,08,05,02,10,3.20
2020,08,05,02,11,1.60
2020,08,05,02,12,1.60
2020,08,05,02,13,1.60
2020,08,05,02,14,3.20
2020,08,05,02,15,3.20
2020,08,05,02,16,3.20
2020,08,05,02,17,1.60
2020,08,05,02,18,1.60
2020,08,05,02,19,3.20
2020,08,05,02,20,1.60
2020,08,05,02,21,1.60
2020,08,05,02,22,1.60
2020,08,05,02,23,1.60
2020,08,05,02,24,1.60
2020,08,05,02,25,1.60
2020,08,05,02,26,1.60
2020,08,05,02,27,1.60
2020,08,05,02,28,1.60
2020,08,05,02,29,1.60
2020,08,05,02,30,1.60
2020,08,05,02,31,1.60
2020,08,05,02,32,1.60
2020,08,05,02,33,1.60
2020,08,05,02,34,1.60
2020,08,05,02,37,1.60
2020,08,05,02,38,1.60
2020,08,05,02,39,1.60
2020,08,05,02,45,1.60
2020,08,05,02,46,3.20
2020,08,05,02,47,3.20
2020,08,05,02,48,1.60
2020,08,05,02,49,1.60
2020,08,05,02,50,1.60
2020,08,05,02,51,1.60
2020,08,05,02,52,1.60
2020,08,05,02,53,3.20
2020,08,05,02,54,3.20
2020,08,05,02,55,1.60
2020,08,05,02,56,1.60
2020,08,05,02,57,1.60
2020,08,05,02,58,1.60
2020,08,05,02,59,1.60
2020,08,05,03,00,1.60
2020,08,05,03,01,1.60
2020,08,05,03,02,1.60
2020,08,05,03,03,1.60
2020,08,05,03,09,1.60
2020,08,05,03,10,1.60
2020,08,05,03,11,1.60
2020,08,05,03,12,1.60
2020,08,05,03,13,1.60
2020,08,05,03,14,1.60
2020,08,05,03,15,1.60
2020,08,05,03,16,1.60
2020,08,05,03,17,1.60
2020,08,05,03,18,1.60
2020,08,05,03,19,1.60
2020,08,05,03,20,1.60
2020,08,05,03,21,1.60
2020,08,05,03,22,1.60
2020,08,05,03,23,1.60
2020,08,05,03,24,1.60
2020,08,05,03,25,1.60
2020,08,05,03,26,3.20
2020,08,05,03,27,3.20
2020,08,05,03,28,3.20
2020,08,05,03,29,3.20
2020,08,05,03,30,3.20
2020,08,05,03,31,3.20
2020,08,05,03,32,4.80
2020,08,05,03,33,4.80
2020,08,05,03,34,4.80
2020,08,05,03,35,4.80
2020,08,05,03,36,4.80
2020,08,05,03,37,4.80
2020,08,05,03,38,4.80
2020,08,05,03,39,1.60
2020,08,05,03,40,1.60
2020,08,05,03,41,1.60
2020,08,05,03,42,1.60
2020,08,05,03,43,1.60
2020,08,05,03,44,1.60
2020,08,05,03,45,3.20
2020,08,05,03,46,4.80
2020,08,05,03,47,3.20
2020,08,05,03,48,3.20
2020,08,05,03,49,1.60
2020,08,05,03,50,3.20
2020,08,05,03,51,4.80
2020,08,05,03,52,3.20
2020,08,05,03,53,4.80
2020,08,05,03,54,3.20
2020,08,05,03,55,3.20
2020,08,05,03,56,4.80
2020,08,05,03,57,3.20
2020,08,05,03,58,4.80
2020,08,05,03,59,4.80
2020,08,05,04,00,3.20
2020,08,05,04,01,3.20
2020,08,05,04,02,4.80
2020,08,05,04,03,4.80
2020,08,05,04,04,4.80
2020,08,05,04,08,4.80
2020,08,05,04,09,4.80
2020,08,05,04,10,3.20
2020,08,05,04,11,3.20
2020,08,05,04,12,3.20
2020,08,05,04,13,3.20
2020,08,05,04,14,3.20
2020,08,05,04,15,3.20
2020,08,05,04,16,3.20
2020,08,05,04,17,3.20
2020,08,05,04,18,3.20
2020,08,05,04,19,3.20
2020,08,05,04,20,3.20
2020,08,05,04,21,3.20
2020,08,05,04,22,3.20
2020,08,05,04,23,4.80
2020,08,05,04,24,3.20
2020,08,05,04,25,3.20
2020,08,05,04,26,4.80
2020,08,05,04,27,4.80
2020,08,05,04,28,4.80
2020,08,05,04,29,4.80
2020,08,05,04,30,4.80
2020,08,05,04,31,4.80
2020,08,05,04,32,3.20
2020,08,05,04,33,1.60
2020,08,05,04,34,1.60
2020,08,05,04,35,3.20
2020,08,05,04,36,3.20
2020,08,05,04,37,4.80
2020,08,05,04,38,4.80
2020,08,05,04,39,4.80
2020,08,05,04,40,3.20
2020,08,05,04,41,3.20
2020,08,05,04,42,3.20
2020,08,05,04,43,3.20
2020,08,05,04,44,3.20
2020,08,05,04,45,3.20
2020,08,05,04,46,3.20
2020,08,05,04,47,1.60
2020,08,05,04,48,1.60
2020,08,05,04,49,1.60
2020,08,05,04,50,1.60
2020,08,05,04,51,1.60
2020,08,05,04,52,3.20
2020,08,05,04,53,3.20
2020,08,05,04,54,3.20
2020,08,05,04,55,3.20
2020,08,05,04,56,3.20
2020,08,05,04,57,3.20
2020,08,05,04,58,3.20
2020,08,05,04,59,4.80
2020,08,05,05,00,4.80
2020,08,05,05,01,4.80
2020,08,05,05,02,4.80
2020,08,05,05,03,4.80
2020,08,05,05,04,4.80
2020,08,05,05,05,4.80
2020,08,05,05,06,4.80
2020,08,05,05,07,4.80
2020,08,05,05,08,4.80
2020,08,05,05,09,3.20
2020,08,05,05,10,3.20
2020,08,05,05,11,1.60
2020,08,05,05,16,1.60
2020,08,05,05,20,1.60
2020,08,05,05,21,1.60
2020,08,05,05,22,1.60
2020,08,05,05,23,1.60
2020,08,05,05,39,1.60
2020,08,05,05,42,1.60
2020,08,05,05,46,1.60
2020,08,05,05,47,1.60
2020,08,05,05,49,1.60
2020,08,05,05,50,3.20
2020,08,05,05,51,3.20
2020,08,05,05,52,4.80
2020,08,05,05,53,6.40
2020,08,05,05,54,6.40
2020,08,05,05,55,6.40
2020,08,05,05,56,4.80
2020,08,05,05,57,6.40
2020,08,05,05,58,4.80
2020,08,05,05,59,3.20
2020,08,05,06,00,1.60
2020,08,05,06,01,1.60
2020,08,05,06,02,1.60
2020,08,05,06,03,1.60
2020,08,05,06,04,1.60
2020,08,05,06,05,1.60
2020,08,05,06,09,1.60
2020,08,05,06,10,3.20
2020,08,05,06,11,4.80
2020,08,05,06,12,4.80
2020,08,05,06,13,4.80
2020,08,05,06,14,3.20
2020,08,05,06,15,1.60
2020,08,05,06,16,3.20
2020,08,05,06,17,1.60
2020,08,05,06,18,3.20
2020,08,05,06,19,1.60
2020,08,05,06,20,1.60
2020,08,05,06,21,1.60
2020,08,05,06,22,1.60
2020,08,05,06,23,1.60
2020,08,05,06,24,1.60
2020,08,05,06,25,1.60
2020,08,05,06,26,1.60
2020,08,05,06,27,1.60
2020,08,05,06,28,3.20
2020,08,05,06,29,3.20
2020,08,05,06,30,3.20
2020,08,05,06,31,3.20
2020,08,05,06,32,3.20
2020,08,05,06,33,4.80
2020,08,05,06,34,4.80
2020,08,05,06,35,4.80
2020,08,05,06,36,3.20
2020,08,05,06,37,1.60
2020,08,05,06,38,3.20
2020,08,05,06,39,1.60
2020,08,05,06,40,3.20
2020,08,05,06,41,3.20
2020,08,05,06,42,3.20
2020,08,05,06,43,4.80
2020,08,05,06,44,3.20
2020,08,05,06,45,1.60
2020,08,05,06,46,3.20
2020,08,05,06,47,3.20
2020,08,05,06,48,1.60
2020,08,05,06,49,3.20
2020,08,05,06,50,1.60
2020,08,05,06,53,1.60
2020,08,05,06,54,4.80
2020,08,05,06,55,3.20
2020,08,05,06,56,1.60
2020,08,05,07,08,1.60
2020,08,05,07,09,1.60
2020,08,05,07,10,1.60
2020,08,05,07,13,1.60
2020,08,05,07,15,1.60
2020,08,05,07,18,1.60
2020,08,05,07,21,1.60
2020,08,05,07,22,1.60
2020,08,05,07,24,1.60
2020,08,05,07,25,1.60
2020,08,05,07,26,1.60
2020,08,05,07,27,1.60
2020,08,05,07,30,1.60
2020,08,05,07,31,1.60
2020,08,05,07,32,1.60
2020,08,05,07,33,1.60
2020,08,05,07,37,1.60
2020,08,05,07,38,3.20
2020,08,05,07,39,3.20
2020,08,05,07,40,1.60
2020,08,05,07,41,3.20
2020,08,05,07,42,1.60
2020,08,05,07,43,1.60
2020,08,05,07,44,1.60
2020,08,05,07,45,1.60
2020,08,05,07,46,1.60
2020,08,05,08,15,1.60
2020,08,05,08,18,1.60
2020,08,05,08,19,1.60
2020,08,05,08,20,1.60
2020,08,05,08,21,1.60
2020,08,05,08,35,1.60
2020,08,05,08,37,1.60
2020,08,05,08,41,3.20
2020,08,05,08,42,4.80
2020,08,05,08,43,4.80
2020,08,05,08,44,3.20
2020,08,05,08,45,3.20
2020,08,05,08,46,3.20
2020,08,05,08,47,3.20
2020,08,05,08,48,3.20
2020,08,05,08,49,4.80
2020,08,05,08,50,3.20
2020,08,05,08,51,1.60
2020,08,05,08,52,1.60
2020,08,05,08,53,3.20
2020,08,05,08,54,3.20
2020,08,05,08,55,4.80
2020,08,05,08,56,4.80
2020,08,05,08,57,4.80
2020,08,05,08,58,6.40
2020,08,05,08,59,4.80
2020,08,05,09,00,3.20
2020,08,05,09,01,3.20
2020,08,05,09,02,3.20
2020,08,05,09,03,4.80
2020,08,05,09,04,3.20
2020,08,05,09,05,3.20
2020,08,05,09,06,4.80
2020,08,05,09,07,3.20
2020,08,05,09,08,3.20
2020,08,05,09,09,4.80
2020,08,05,09,10,6.40
2020,08,05,09,11,3.20
2020,08,05,09,12,3.20
2020,08,05,09,13,3.20
2020,08,05,09,14,4.80
2020,08,05,09,15,4.80
2020,08,05,09,16,8.10
2020,08,05,09,17,4.80
2020,08,05,09,18,4.80
2020,08,05,09,19,4.80
2020,08,05,09,20,4.80
2020,08,05,09,21,4.80
2020,08,05,09,22,3.20
2020,08,05,09,23,4.80
2020,08,05,09,24,6.40
2020,08,05,09,25,6.40
2020,08,05,09,26,4.80
2020,08,05,09,27,9.60
2020,08,05,09,28,4.80
2020,08,05,09,29,3.20
2020,08,05,09,30,8.10
2020,08,05,09,31,4.80
2020,08,05,09,32,3.20
2020,08,05,09,33,3.20
2020,08,05,09,34,1.60
2020,08,05,09,35,3.20
2020,08,05,09,36,1.60
2020,08,05,09,37,6.40
2020,08,05,09,38,8.10
2020,08,05,09,39,3.20
2020,08,05,09,40,1.60
2020,08,05,09,41,1.60
2020,08,05,09,42,6.40
2020,08,05,09,43,4.80
2020,08,05,09,44,3.20
2020,08,05,09,45,4.80
2020,08,05,09,46,3.20
2020,08,05,09,47,6.40
2020,08,05,09,48,6.40
2020,08,05,09,49,6.40
2020,08,05,09,50,6.40
2020,08,05,09,51,6.40
2020,08,05,09,52,6.40
2020,08,05,09,53,11.30
2020,08,05,09,54,9.60
2020,08,05,09,55,11.30
2020,08,05,09,56,11.30
2020,08,05,09,57,6.40
2020,08,05,09,58,4.80
2020,08,05,09,59,8.10
2020,08,05,10,00,9.60
2020,08,05,10,01,9.60
2020,08,05,10,02,9.60
2020,08,05,10,03,9.60
2020,08,05,10,04,8.10
2020,08,05,10,05,8.10
2020,08,05,10,06,9.60
2020,08,05,10,07,8.10
2020,08,05,10,08,6.40
2020,08,05,10,09,6.40
2020,08,05,10,10,8.10
2020,08,05,10,11,6.40
2020,08,05,10,12,9.60
2020,08,05,10,13,6.40
2020,08,05,10,14,6.40
2020,08,05,10,15,14.50
2020,08,05,10,16,6.40
2020,08,05,10,17,9.60
2020,08,05,10,18,9.60
2020,08,05,10,19,8.10
2020,08,05,10,20,9.60
2020,08,05,10,21,4.80
2020,08,05,10,22,8.10
2020,08,05,10,23,8.10
2020,08,05,10,24,8.10
2020,08,05,10,25,9.60
2020,08,05,10,26,11.30
2020,08,05,10,27,11.30
2020,08,05,10,28,11.30
2020,08,05,10,29,8.10
2020,08,05,10,30,11.30
2020,08,05,10,31,9.60
2020,08,05,10,32,9.60
2020,08,05,10,33,11.30
2020,08,05,10,34,9.60
2020,08,05,10,35,6.40
2020,08,05,10,36,11.30
2020,08,05,10,37,11.30
2020,08,05,10,38,14.50
2020,08,05,10,39,11.30
2020,08,05,10,40,11.30
2020,08,05,10,41,12.90
2020,08,05,10,42,12.90
2020,08,05,10,43,12.90
2020,08,05,10,44,12.90
2020,08,05,10,45,12.90
2020,08,05,10,46,11.30
2020,08,05,10,47,11.30
2020,08,05,10,48,9.60
2020,08,05,10,49,9.60
2020,08,05,10,50,8.10
2020,08,05,10,51,6.40
2020,08,05,10,52,11.30
2020,08,05,10,53,11.30
2020,08,05,10,54,11.30
2020,08,05,10,55,12.90
2020,08,05,10,56,11.30
2020,08,05,10,57,9.60
2020,08,05,10,58,12.90
2020,08,05,10,59,12.90
2020,08,05,11,00,12.90
2020,08,05,11,01,12.90
2020,08,05,11,02,8.10
2020,08,05,11,03,14.50
2020,08,05,11,04,14.50
2020,08,05,11,05,12.90
2020,08,05,11,06,11.30
2020,08,05,11,07,11.30
2020,08,05,11,08,11.30
2020,08,05,11,09,12.90
2020,08,05,11,10,14.50
2020,08,05,11,11,12.90
2020,08,05,11,12,12.90
2020,08,05,11,13,14.50
2020,08,05,11,14,14.50
2020,08,05,11,15,9.60
2020,08,05,11,16,12.90
2020,08,05,11,17,12.90
2020,08,05,11,18,12.90
2020,08,05,11,19,12.90
2020,08,05,11,20,9.60
2020,08,05,11,21,9.60
2020,08,05,11,22,11.30
2020,08,05,11,23,11.30
2020,08,05,11,24,8.10
2020,08,05,11,25,6.40
2020,08,05,11,26,6.40
2020,08,05,11,27,11.30
2020,08,05,11,28,11.30
2020,08,05,11,29,8.10
2020,08,05,11,30,12.90
2020,08,05,11,31,12.90
2020,08,05,11,32,9.60
2020,08,05,11,33,11.30
2020,08,05,11,34,6.40
2020,08,05,11,35,8.10
2020,08,05,11,36,11.30
2020,08,05,11,37,8.10
2020,08,05,11,38,8.10
2020,08,05,11,39,9.60
2020,08,05,11,40,12.90
2020,08,05,11,41,11.30
2020,08,05,11,42,8.10
2020,08,05,11,43,9.60
2020,08,05,11,44,6.40
2020,08,05,11,45,12.90
2020,08,05,11,46,8.10
2020,08,05,11,47,4.80
2020,08,05,11,48,9.60
2020,08,05,11,49,9.60
2020,08,05,11,50,9.60
2020,08,05,11,51,6.40
2020,08,05,11,52,9.60
2020,08,05,11,53,8.10
2020,08,05,11,54,9.60
2020,08,05,11,55,8.10
2020,08,05,11,56,11.30
2020,08,05,11,57,4.80
2020,08,05,11,58,6.40
2020,08,05,11,59,4.80
2020,08,05,12,00,3.20
2020,08,05,12,01,8.10
2020,08,05,12,02,11.30
2020,08,05,12,03,3.20
2020,08,05,12,04,4.80
2020,08,05,12,05,8.10
2020,08,05,12,06,8.10
2020,08,05,12,07,9.60
2020,08,05,12,08,6.40
2020,08,05,12,09,3.20
2020,08,05,12,10,6.40
2020,08,05,12,11,4.80
2020,08,05,12,12,4.80
2020,08,05,12,13,4.80
2020,08,05,12,14,8.10
2020,08,05,12,15,8.10
2020,08,05,12,16,11.30
2020,08,05,12,17,12.90
2020,08,05,12,18,14.50
2020,08,05,12,19,11.30
2020,08,05,12,20,11.30
2020,08,05,12,21,8.10
2020,08,05,12,22,12.90
2020,08,05,12,23,11.30
2020,08,05,12,24,8.10
2020,08,05,12,25,3.20
2020,08,05,12,26,4.80
2020,08,05,12,27,9.60
2020,08,05,12,28,9.60
2020,08,05,12,29,14.50
2020,08,05,12,30,8.10
2020,08,05,12,31,11.30
2020,08,05,12,32,8.10
2020,08,05,12,33,11.30
2020,08,05,12,34,11.30
2020,08,05,12,35,11.30
2020,08,05,12,36,8.10
2020,08,05,12,37,11.30
2020,08,05,12,38,11.30
2020,08,05,12,39,11.30
2020,08,05,12,40,11.30
2020,08,05,12,41,12.90
2020,08,05,12,42,11.30
2020,08,05,12,43,11.30
2020,08,05,12,44,9.60
2020,08,05,12,45,12.90
2020,08,05,12,46,11.30
2020,08,05,12,47,11.30
2020,08,05,12,48,11.30
2020,08,05,12,49,12.90
2020,08,05,12,50,6.40
2020,08,05,12,51,8.10
2020,08,05,12,52,4.80
2020,08,05,12,53,3.20
2020,08,05,12,54,8.10
2020,08,05,12,55,8.10
2020,08,05,12,56,6.40
2020,08,05,12,57,9.60
2020,08,05,12,58,8.10
2020,08,05,12,59,9.60
2020,08,05,13,00,9.60
2020,08,05,13,01,11.30
2020,08,05,13,02,9.60
2020,08,05,13,03,12.90
2020,08,05,13,04,12.90
2020,08,05,13,05,11.30
2020,08,05,13,06,9.60
2020,08,05,13,07,11.30
2020,08,05,13,08,9.60
2020,08,05,13,09,11.30
2020,08,05,13,10,11.30
2020,08,05,13,11,8.10
2020,08,05,13,12,9.60
2020,08,05,13,13,11.30
2020,08,05,13,14,8.10
2020,08,05,13,15,11.30
2020,08,05,13,16,8.10
2020,08,05,13,17,8.10
2020,08,05,13,18,4.80
2020,08,05,13,19,8.10
2020,08,05,13,20,8.10
2020,08,05,13,21,4.80
2020,08,05,13,22,4.80
2020,08,05,13,23,4.80
2020,08,05,13,24,1.60
2020,08,05,13,25,1.60
2020,08,05,13,26,1.60
2020,08,05,13,27,1.60
2020,08,05,13,28,3.20
2020,08,05,13,29,8.10
2020,08,05,13,30,8.10
2020,08,05,13,31,8.10
2020,08,05,13,32,8.10
2020,08,05,13,33,9.60
2020,08,05,13,34,8.10
2020,08,05,13,35,4.80
2020,08,05,13,36,6.40
2020,08,05,13,37,4.80
2020,08,05,13,38,4.80
2020,08,05,13,39,3.20
2020,08,05,13,40,8.10
2020,08,05,13,41,6.40
2020,08,05,13,42,8.10
2020,08,05,13,43,12.90
2020,08,05,13,44,12.90
2020,08,05,13,45,8.10
2020,08,05,13,46,6.40
2020,08,05,13,47,3.20
2020,08,05,13,48,3.20
2020,08,05,13,49,6.40
2020,08,05,13,50,9.60
2020,08,05,13,51,8.10
2020,08,05,13,52,3.20
2020,08,05,13,53,4.80
2020,08,05,13,54,4.80
2020,08,05,13,55,4.80
2020,08,05,13,56,3.20
2020,08,05,13,57,8.10
2020,08,05,13,58,11.30
2020,08,05,13,59,17.70
2020,08,05,14,00,11.30
2020,08,05,14,01,8.10
2020,08,05,14,02,4.80
2020,08,05,14,03,9.60
2020,08,05,14,04,9.60
2020,08,05,14,05,8.10
2020,08,05,14,06,11.30
2020,08,05,14,07,11.30
2020,08,05,14,08,4.80
2020,08,05,14,09,8.10
2020,08,05,14,10,4.80
2020,08,05,14,11,6.40
2020,08,05,14,12,14.50
2020,08,05,14,13,12.90
2020,08,05,14,14,19.30
2020,08,05,14,15,17.70
2020,08,05,14,16,19.30
2020,08,05,14,17,8.10
2020,08,05,14,18,8.10
2020,08,05,14,19,19.30
2020,08,05,14,20,11.30
2020,08,05,14,21,16.10
2020,08,05,14,22,11.30
2020,08,05,14,23,11.30
2020,08,05,14,24,12.90
2020,08,05,14,25,8.10
2020,08,05,14,26,9.60
2020,08,05,14,27,11.30
2020,08,05,14,28,17.70
2020,08,05,14,29,19.30
2020,08,05,14,30,12.90
2020,08,05,14,31,9.60
2020,08,05,14,32,16.10
2020,08,05,14,33,16.10
2020,08,05,14,34,16.10
2020,08,05,14,35,17.70
2020,08,05,14,36,16.10
2020,08,05,14,37,16.10
2020,08,05,14,38,9.60
2020,08,05,14,39,8.10
2020,08,05,14,40,12.90
2020,08,05,14,41,16.10
2020,08,05,14,42,9.60
2020,08,05,14,43,8.10
2020,08,05,14,44,11.30
2020,08,05,14,45,11.30
2020,08,05,14,46,9.60
2020,08,05,14,47,9.60
2020,08,05,14,48,22.50
2020,08,05,14,49,14.50
2020,08,05,14,50,11.30
2020,08,05,14,51,17.70
2020,08,05,14,52,11.30
2020,08,05,14,53,9.60
2020,08,05,14,54,9.60
2020,08,05,14,55,6.40
2020,08,05,14,56,6.40
2020,08,05,14,57,12.90
2020,08,05,14,58,9.60
2020,08,05,14,59,9.60
2020,08,05,15,00,11.30
2020,08,05,15,01,17.70
2020,08,05,15,02,19.30
2020,08,05,15,03,14.50
2020,08,05,15,04,14.50
2020,08,05,15,05,19.30
2020,08,05,15,06,12.90
2020,08,05,15,07,11.30
2020,08,05,15,08,16.10
2020,08,05,15,09,11.30
2020,08,05,15,10,12.90
2020,08,05,15,11,8.10
2020,08,05,15,12,8.10
2020,08,05,15,13,11.30
2020,08,05,15,14,12.90
2020,08,05,15,15,16.10
2020,08,05,15,16,12.90
2020,08,05,15,17,20.90
2020,08,05,15,18,14.50
2020,08,05,15,19,19.30
2020,08,05,15,20,16.10
2020,08,05,15,21,12.90
2020,08,05,15,22,12.90
2020,08,05,15,23,11.30
2020,08,05,15,24,11.30
2020,08,05,15,25,19.30
2020,08,05,15,26,16.10
2020,08,05,15,27,19.30
2020,08,05,15,28,12.90
2020,08,05,15,29,9.60
2020,08,05,15,30,12.90
2020,08,05,15,31,17.70
2020,08,05,15,32,17.70
2020,08,05,15,33,17.70
2020,08,05,15,34,14.50
2020,08,05,15,35,16.10
2020,08,05,15,36,12.90
2020,08,05,15,37,11.30
2020,08,05,15,38,9.60
2020,08,05,15,39,8.10
2020,08,05,15,40,8.10
2020,08,05,15,41,11.30
2020,08,05,15,42,12.90
2020,08,05,15,43,11.30
2020,08,05,15,44,11.30
2020,08,05,15,45,9.60
2020,08,05,15,46,20.90
2020,08,05,15,47,19.30
2020,08,05,15,48,17.70
2020,08,05,15,49,22.50
2020,08,05,15,50,16.10
2020,08,05,15,51,14.50
2020,08,05,15,52,16.10
2020,08,05,15,53,17.70
2020,08,05,15,54,16.10
2020,08,05,15,55,14.50
2020,08,05,15,56,24.20
2020,08,05,15,57,24.20
2020,08,05,15,58,19.30
2020,08,05,15,59,17.70
2020,08,05,16,00,16.10
2020,08,05,16,01,12.90
2020,08,05,16,02,12.90
2020,08,05,16,03,16.10
2020,08,05,16,04,20.90
2020,08,05,16,05,17.70
2020,08,05,16,06,9.60
2020,08,05,16,07,11.30
2020,08,05,16,08,12.90
2020,08,05,16,09,11.30
2020,08,05,16,10,11.30
2020,08,05,16,11,11.30
2020,08,05,16,12,14.50
2020,08,05,16,13,12.90
2020,08,05,16,14,9.60
2020,08,05,16,15,11.30
2020,08,05,16,16,9.60
2020,08,05,16,17,12.90
2020,08,05,16,18,12.90
2020,08,05,16,19,9.60
2020,08,05,16,20,9.60
2020,08,05,16,21,11.30
2020,08,05,16,22,17.70
2020,08,05,16,23,20.90
2020,08,05,16,24,12.90
2020,08,05,16,25,11.30
2020,08,05,16,26,19.30
2020,08,05,16,27,12.90
2020,08,05,16,28,14.50
2020,08,05,16,29,16.10
2020,08,05,16,30,19.30
2020,08,05,16,31,22.50
2020,08,05,16,32,12.90
2020,08,05,16,33,11.30
2020,08,05,16,34,19.30
2020,08,05,16,35,16.10
2020,08,05,16,36,20.90
2020,08,05,16,37,19.30
2020,08,05,16,38,9.60
2020,08,05,16,39,8.10
2020,08,05,16,40,19.30
2020,08,05,16,41,20.90
2020,08,05,16,42,12.90
2020,08,05,16,43,20.90
2020,08,05,16,44,17.70
2020,08,05,16,45,17.70
2020,08,05,16,46,12.90
2020,08,05,16,47,14.50
2020,08,05,16,48,14.50
2020,08,05,16,49,11.30
2020,08,05,16,50,19.30
2020,08,05,16,51,11.30
2020,08,05,16,52,11.30
2020,08,05,16,53,12.90
2020,08,05,16,54,16.10
2020,08,05,16,55,19.30
2020,08,05,16,56,22.50
2020,08,05,16,57,19.30
2020,08,05,16,58,20.90
2020,08,05,16,59,19.30
2020,08,05,17,00,14.50
2020,08,05,17,01,16.10
2020,08,05,17,02,12.90
2020,08,05,17,03,20.90
2020,08,05,17,04,14.50
2020,08,05,17,05,22.50
2020,08,05,17,06,20.90
2020,08,05,17,07,12.90
2020,08,05,17,08,19.30
2020,08,05,17,09,11.30
2020,08,05,17,10,22.50
2020,08,05,17,11,19.30
2020,08,05,17,12,14.50
2020,08,05,17,13,9.60
2020,08,05,17,14,12.90
2020,08,05,17,15,9.60
2020,08,05,17,16,14.50
2020,08,05,17,17,11.30
2020,08,05,17,18,14.50
2020,08,05,17,19,11.30
2020,08,05,17,20,8.10
2020,08,05,17,21,9.60
2020,08,05,17,22,14.50
2020,08,05,17,23,6.40
2020,08,05,17,24,17.70
2020,08,05,17,25,12.90
2020,08,05,17,26,11.30
2020,08,05,17,27,12.90
2020,08,05,17,28,9.60
2020,08,05,17,29,6.40
2020,08,05,17,30,14.50
2020,08,05,17,31,12.90
2020,08,05,17,32,9.60
2020,08,05,17,33,8.10
2020,08,05,17,34,6.40
2020,08,05,17,35,8.10
2020,08,05,17,36,3.20
2020,08,05,17,37,8.10
2020,08,05,17,38,11.30
2020,08,05,17,39,14.50
2020,08,05,17,40,9.60
2020,08,05,17,41,14.50
2020,08,05,17,42,14.50
2020,08,05,17,43,11.30
2020,08,05,17,44,12.90
2020,08,05,17,45,11.30
2020,08,05,17,46,11.30
2020,08,05,17,47,8.10
2020,08,05,17,48,9.60
2020,08,05,17,49,12.90
2020,08,05,17,50,17.70
2020,08,05,17,51,12.90
2020,08,05,17,52,11.30
2020,08,05,17,53,11.30
2020,08,05,17,54,11.30
2020,08,05,17,55,17.70
2020,08,05,17,56,14.50
2020,08,05,17,57,12.90
2020,08,05,17,58,16.10
2020,08,05,17,59,9.60
2020,08,05,18,00,9.60
2020,08,05,18,01,9.60
2020,08,05,18,02,14.50
2020,08,05,18,03,9.60
2020,08,05,18,04,9.60
2020,08,05,18,05,3.20
2020,08,05,18,06,4.80
2020,08,05,18,07,6.40
2020,08,05,18,08,11.30
2020,08,05,18,09,8.10
2020,08,05,18,10,8.10
2020,08,05,18,11,6.40
2020,08,05,18,12,9.60
2020,08,05,18,13,6.40
2020,08,05,18,14,9.60
2020,08,05,18,15,11.30
2020,08,05,18,16,12.90
2020,08,05,18,17,11.30
2020,08,05,18,18,9.60
2020,08,05,18,19,8.10
2020,08,05,18,20,14.50
2020,08,05,18,21,9.60
2020,08,05,18,22,8.10
2020,08,05,18,23,17.70
2020,08,05,18,24,9.60
2020,08,05,18,25,9.60
2020,08,05,18,26,9.60
2020,08,05,18,27,6.40
2020,08,05,18,28,3.20
2020,08,05,18,29,8.10
2020,08,05,18,30,11.30
2020,08,05,18,31,11.30
2020,08,05,18,32,11.30
2020,08,05,18,33,8.10
2020,08,05,18,34,11.30
2020,08,05,18,35,9.60
2020,08,05,18,36,9.60
2020,08,05,18,37,8.10
2020,08,05,18,38,6.40
2020,08,05,18,39,11.30
2020,08,05,18,40,9.60
2020,08,05,18,41,12.90
2020,08,05,18,42,11.30
2020,08,05,18,43,12.90
2020,08,05,18,44,12.90
2020,08,05,18,45,11.30
2020,08,05,18,46,9.60
2020,08,05,18,47,11.30
2020,08,05,18,48,16.10
2020,08,05,18,49,11.30
2020,08,05,18,50,19.30
2020,08,05,18,51,14.50
2020,08,05,18,52,11.30
2020,08,05,18,53,8.10
2020,08,05,18,54,11.30
2020,08,05,18,55,11.30
2020,08,05,18,56,14.50
2020,08,05,18,57,14.50
2020,08,05,18,58,14.50
2020,08,05,18,59,11.30
2020,08,05,19,00,16.10
2020,08,05,19,01,12.90
2020,08,05,19,02,16.10
2020,08,05,19,03,14.50
2020,08,05,19,04,14.50
2020,08,05,19,05,17.70
2020,08,05,19,06,12.90
2020,08,05,19,07,9.60
2020,08,05,19,08,11.30
2020,08,05,19,09,19.30
2020,08,05,19,10,16.10
2020,08,05,19,11,12.90
2020,08,05,19,12,14.50
2020,08,05,19,13,17.70
2020,08,05,19,14,11.30
2020,08,05,19,15,17.70
2020,08,05,19,16,16.10
2020,08,05,19,17,12.90
2020,08,05,19,18,16.10
2020,08,05,19,19,12.90
2020,08,05,19,20,12.90
2020,08,05,19,21,14.50
2020,08,05,19,22,17.70
2020,08,05,19,23,20.90
2020,08,05,19,24,14.50
2020,08,05,19,25,12.90
2020,08,05,19,26,16.10
2020,08,05,19,27,17.70
2020,08,05,19,28,19.30
2020,08,05,19,29,17.70
2020,08,05,19,30,14.50
2020,08,05,19,31,11.30
2020,08,05,19,32,12.90
2020,08,05,19,33,16.10
2020,08,05,19,34,19.30
2020,08,05,19,35,16.10
2020,08,05,19,36,17.70
2020,08,05,19,37,14.50
2020,08,05,19,38,14.50
2020,08,05,19,39,17.70
2020,08,05,19,40,17.70
2020,08,05,19,41,14.50
2020,08,05,19,42,12.90
2020,08,05,19,43,16.10
2020,08,05,19,44,16.10
2020,08,05,19,45,12.90
2020,08,05,19,46,12.90
2020,08,05,19,47,11.30
2020,08,05,19,48,14.50
2020,08,05,19,49,19.30
2020,08,05,19,50,11.30
2020,08,05,19,51,14.50
2020,08,05,19,52,14.50
2020,08,05,19,53,14.50
2020,08,05,19,54,12.90
2020,08,05,19,55,14.50
2020,08,05,19,56,11.30
2020,08,05,19,57,14.50
2020,08,05,19,58,12.90
2020,08,05,19,59,17.70
2020,08,05,20,00,12.90
2020,08,05,20,01,12.90
2020,08,05,20,02,12.90
2020,08,05,20,03,16.10
2020,08,05,20,04,12.90
2020,08,05,20,05,12.90
2020,08,05,20,06,12.90
2020,08,05,20,07,12.90
2020,08,05,20,08,12.90
2020,08,05,20,09,11.30
2020,08,05,20,10,11.30
2020,08,05,20,11,9.60
2020,08,05,20,12,12.90
2020,08,05,20,13,16.10
2020,08,05,20,14,8.10
2020,08,05,20,15,12.90
2020,08,05,20,16,9.60
2020,08,05,20,17,11.30
2020,08,05,20,18,12.90
2020,08,05,20,19,9.60
2020,08,05,20,20,14.50
2020,08,05,20,21,8.10
2020,08,05,20,22,9.60
2020,08,05,20,23,6.40
2020,08,05,20,24,9.60
2020,08,05,20,25,6.40
2020,08,05,20,26,4.80
2020,08,05,20,27,9.60
2020,08,05,20,28,8.10
2020,08,05,20,29,6.40
2020,08,05,20,30,4.80
2020,08,05,20,31,4.80
2020,08,05,20,32,6.40
2020,08,05,20,34,4.80
2020,08,05,20,35,4.80
2020,08,05,20,36,1.60
2020,08,05,20,37,1.60
2020,08,05,20,38,3.20
2020,08,05,20,39,11.30
2020,08,05,20,40,3.20
2020,08,05,20,41,3.20
2020,08,05,20,42,1.60